Probability
2 3 6 6 5 3 3 4 4 5 5 4 1 0 0 0 1 1 1 3 6 7 8 7 5 4 4 4 4 2 1 1 0 0 0 0 0 0 0 0 0 0 0
6 7 9 9 6 4 5 6 5 5 5 4 2 1 1 1 2 2 1 2 5 7 8 7 5 5 5 5 4 3 2 2 1 1 0 0 0 0 0 0 0 0 0
9 10 10 10 8 5 5 6 6 6 5 4 3 3 3 3 3 3 2 3 4 5 6 5 4 4 4 4 4 3 3 3 3 2 1 0 0 0 0 1 0 0 0
8 8 7 8 9 8 5 5 5 5 5 4 3 4 4 4 3 3 3 3 3 4 4 4 4 3 3 3 3 3 3 4 3 3 2 1 1 0 0 1 0 0 0
9 8 6 7 9 9 6 5 5 4 3 3 2 3 4 4 3 2 2 2 2 3 3 3 3 3 2 2 2 3 4 5 4 3 3 3 2 1 1 1 0 0 0
12 12 10 9 9 9 8 7 6 3 2 2 1 2 3 3 4 3 2 1 1 1 2 3 3 2 1 1 1 1 3 5 5 4 4 3 3 2 1 1 0 0 0
13 13 13 12 11 12 11 10 7 3 2 2 1 1 1 2 3 3 3 2 1 0 1 3 4 3 1 0 0 1 2 5 6 6 6 5 4 3 2 1 0 0 0
13 12 13 13 14 15 15 14 10 7 5 5 4 2 1 0 1 1 2 2 1 0 0 3 6 7 5 2 0 0 2 4 7 8 8 7 5 4 3 2 0 0 0
15 14 14 15 15 16 17 16 14 12 11 10 8 7 4 2 0 0 0 1 2 1 0 1 5 7 8 5 2 0 1 3 5 7 8 7 5 3 2 1 0 0 0
17 17 17 17 16 16 16 16 15 16 15 12 11 11 9 5 2 1 0 1 3 3 2 1 2 3 6 6 4 2 1 1 2 4 5 4 3 2 1 1 0 0 0
21 21 21 19 18 18 18 17 16 16 15 12 11 10 10 8 5 3 2 2 3 3 2 1 0 0 2 4 4 3 1 0 0 1 2 3 4 4 3 2 1 0 0
22 22 21 20 21 21 21 19 17 16 15 13 11 10 9 8 8 7 5 2 1 1 2 1 1 0 1 2 3 3 1 0 0 0 0 2 4 4 4 3 1 1 0
22 21 22 23 24 24 22 19 18 17 16 14 13 11 9 7 8 7 6 3 1 0 1 1 2 2 2 3 3 2 1 0 0 0 0 0 1 2 2 2 2 1 1
20 22 24 26 26 25 21 19 19 17 16 14 14 14 11 7 6 7 6 4 2 0 0 1 3 5 5 6 5 3 1 0 0 0 0 0 0 0 0 1 1 1 0
18 21 25 26 26 25 24 23 21 17 15 13 12 13 12 7 5 6 6 6 5 3 1 2 2 4 6 6 5 4 3 2 0 0 0 0 0 0 0 0 0 0 0
18 20 24 26 26 26 27 27 24 19 15 14 12 11 11 7 4 4 5 8 8 7 5 3 3 3 5 6 7 6 5 3 1 0 0 0 0 0 0 0 0 0 0
22 23 25 27 29 28 28 28 24 20 19 18 15 12 10 8 5 4 6 9 11 11 8 6 5 5 5 6 8 7 5 3 1 0 0 0 0 0 0 0 0 0 0
26 25 25 27 30 30 29 26 23 21 20 19 17 15 11 8 8 7 7 11 13 12 10 8 7 6 6 6 7 7 5 2 1 0 0 0 0 0 0 0 0 0 0
27 25 25 27 29 29 26 23 21 20 20 18 18 16 12 9 11 11 10 12 13 13 11 9 7 6 6 6 7 7 5 3 2 1 0 0 0 0 0 0 0 0 0
26 26 26 27 27 25 22 20 18 19 19 18 18 17 14 12 11 11 12 13 14 14 11 8 6 6 6 6 7 6 3 3 4 2 1 1 1 0 0 0 0 0 0
27 27 26 26 25 21 17 15 16 16 18 18 17 16 14 12 10 9 10 12 13 13 11 8 7 6 6 6 6 4 2 1 3 2 2 2 2 1 1 1 0 0 0
29 28 26 24 23 19 14 11 12 15 19 20 19 17 14 13 11 8 6 6 8 9 8 8 9 9 8 7 5 4 2 1 2 2 2 2 3 3 3 3 1 0 0
32 31 28 26 24 18 12 9 9 14 20 22 23 22 18 16 14 10 6 3 4 4 4 6 9 9 8 7 6 4 3 2 3 3 3 2 3 3 3 3 2 1 0
37 35 32 30 26 18 11 9 9 13 18 21 24 24 22 20 16 11 7 5 5 3 1 2 5 6 6 5 5 4 3 3 4 4 3 3 3 3 3 3 2 1 0
38 35 31 30 26 17 11 7 8 12 18 21 23 22 22 19 13 7 6 6 6 5 3 1 2 2 2 2 3 3 3 3 3 3 3 3 4 4 4 4 3 2 1
39 34 29 28 25 18 11 6 8 14 19 21 22 20 18 16 9 4 4 6 7 7 5 3 1 1 1 1 1 2 3 3 2 2 3 4 5 5 4 5 4 3 2
Wind_Speed
2 2 1 1 1 1 2 2 1 1 1 1 0 1 2 3 5 6 6 10 10 10 9 9 8 8 7 7 6 6 6 6 6 6 6 7 7 8 8 7 7 7 7
2 2 1 1 1 1 1 1 1 1 0 1 2 2 1 2 5 6 6 7 9 9 9 8 8 8 8 7 6 6 6 6 6 6 6 7 7 8 8 8 8 8 8
2 1 1 1 0 1 1 1 1 0 1 1 2 1 1 2 3 5 5 5 6 8 9 9 8 8 8 8 7 7 6 6 6 6 6 6 7 7 7 7 7 7 8
2 1 1 1 1 1 1 1 1 1 1 0 1 1 2 2 2 3 4 4 5 5 7 9 9 8 8 7 8 8 7 7 7 6 6 7 7 7 7 7 7 7 7
2 1 1 1 0 0 0 0 1 1 0 0 1 2 1 1 2 2 2 4 3 4 5 8 10 9 8 8 8 8 8 8 7 7 7 7 7 7 7 8 8 7 7
1 1 1 0 0 1 1 1 1 0 0 1 0 1 1 2 2 2 2 2 3 5 5 6 6 6 8 7 7 7 7 7 7 7 7 7 7 7 8 8 7 7 7
1 1 0 1 0 0 0 0 0 1 0 0 1 1 0 1 2 2 1 1 1 2 3 4 4 3 3 6 5 5 5 5 5 6 6 7 7 7 7 8 8 8 8
0 1 1 0 1 1 0 0 0 0 1 1 1 1 0 0 0 2 2 1 1 1 2 3 3 3 3 3 3 4 4 4 5 5 5 5 6 6 7 8 8 8 7
1 1 1 0 0 0 1 0 0 1 1 1 1 1 1 1 0 0 1 1 2 1 1 2 3 3 3 2 3 2 3 3 4 4 4 4 5 5 5 6 6 7 7
1 2 1 1 1 0 0 1 1 1 1 1 1 1 2 2 1 0 0 1 1 2 1 1 2 3 3 3 3 4 3 2 2 2 2 2 2 4 4 4 5 5 6
2 2 2 1 1 0 0 1 1 1 1 2 1 1 1 1 2 2 1 1 0 1 1 1 1 2 3 3 3 5 6 4 3 2 1 1 1 1 3 4 4 4 5
1 2 2 2 1 1 1 1 1 1 1 2 2 2 1 1 1 1 2 2 1 1 1 1 1 2 2 3 5 7 7 6 4 3 3 2 2 2 0 2 3 3 4
1 1 2 1 1 1 1 1 1 1 1 1 2 2 1 1 1 1 1 1 1 1 1 1 1 2 3 3 4 8 8 7 6 5 4 4 4 3 3 3 2 1 2
1 2 2 2 1 0 1 1 0 1 0 1 2 1 1 1 1 0 1 1 1 1 1 1 1 2 3 4 5 7 6 8 7 6 6 6 5 5 5 5 4 4 3
1 2 2 1 1 1 0 1 0 1 1 1 1 1 1 2 1 1 1 2 2 2 1 1 1 1 3 4 5 5 5 8 8 7 7 7 7 7 6 6 5 5 5
1 2 1 1 1 1 1 1 1 1 1 1 1 2 2 2 2 1 1 1 1 2 2 1 1 2 3 4 5 5 6 9 8 8 8 8 8 8 7 7 6 5 5
1 1 1 1 1 1 1 1 0 0 1 1 2 1 1 2 2 2 1 0 0 1 2 2 2 3 3 4 4 4 5 4 5 8 8 8 8 8 8 8 7 8 7
1 1 1 1 1 1 1 1 0 1 1 1 1 2 2 2 2 2 2 1 0 1 2 3 2 2 2 3 3 3 3 4 4 7 8 8 8 7 7 7 7 7 7
1 1 1 1 0 1 1 1 0 1 1 1 1 2 2 2 2 2 2 2 1 0 1 3 3 2 2 2 2 2 3 3 4 6 6 7 8 7 7 6 6 6 6
2 1 1 1 1 1 1 1 1 1 1 2 2 2 3 3 3 2 2 2 1 1 1 2 2 3 2 1 2 2 2 1 2 3 3 5 7 7 7 6 5 5 5
2 2 2 2 2 1 2 1 1 1 1 2 2 3 5 6 7 5 3 3 3 2 1 1 2 2 2 2 1 1 2 1 1 2 2 2 4 3 3 4 5 4 4
3 3 3 2 2 2 5 5 3 1 2 2 2 2 3 4 5 7 8 7 6 4 3 2 1 1 2 1 1 1 2 1 1 1 1 1 2 2 2 3 5 6 5
3 3 3 2 3 5 6 6 4 2 2 2 2 2 2 4 4 3 4 5 6 6 4 2 2 2 1 1 1 1 1 1 1 1 1 0 1 1 2 3 8 8 7
3 3 3 3 3 4 6 5 4 2 2 2 3 3 3 3 4 3 3 4 4 4 3 3 2 2 3 1 0 1 1 1 0 1 1 0 1 1 1 2 7 8 8
3 3 3 3 3 3 4 4 2 1 2 3 3 4 3 3 6 5 3 3 3 3 4 5 4 3 3 3 2 1 1 1 0 1 1 0 1 1 1 2 4 8 7
3 3 4 3 3 3 4 4 3 1 2 2 2 3 6 5 6 5 3 3 2 2 2 2 2 2 1 2 1 1 1 1 1 0 1 1 1 1 1 1 2 3 3
Wind_Direction
79 71 70 87 119 122 135 121 110 123 143 142 134 60 68 87 106 116 128 145 149 156 161 167 169 173 175 175 178 182 183 185 186 189 192 192 193 193 193 195 196 194 196
97 93 85 61 89 101 110 115 115 129 97 74 59 43 54 85 110 123 133 147 154 159 165 170 173 176 177 178 182 186 188 191 189 188 191 193 197 198 198 202 207 206 205
108 109 118 118 83 104 112 112 117 124 129 105 97 74 73 80 112 126 141 152 162 173 177 177 176 180 186 191 194 195 194 192 191 187 190 196 200 202 204 208 208 208 209
108 99 98 101 93 106 141 146 153 121 88 100 120 116 96 109 120 145 152 158 159 170 183 187 183 186 192 197 200 201 203 202 200 200 202 205 208 207 208 210 213 212 211
101 102 71 72 330 100 99 68 91 87 86 120 133 134 138 129 144 156 143 151 163 166 167 183 187 190 194 197 202 206 210 211 210 211 211 213 213 211 210 212 215 216 214
106 88 143 155 296 48 50 64 49 42 255 234 199 115 140 153 141 142 159 156 171 176 173 167 178 196 198 199 203 207 212 213 211 213 212 211 214 215 214 214 215 215 215
79 83 70 83 101 104 95 96 242 255 242 189 96 51 350 170 154 163 152 137 147 128 133 141 155 162 174 190 198 206 210 208 207 208 214 217 219 217 214 215 217 218 219
152 177 129 213 101 124 65 297 51 314 268 167 138 144 335 344 269 146 138 134 119 112 122 137 135 146 151 151 162 191 205 209 211 210 210 215 223 229 226 225 220 215 215
150 52 77 315 312 210 169 218 219 212 264 285 170 151 183 192 230 47 96 110 114 101 90 98 117 131 142 129 140 167 195 210 214 216 214 214 216 218 222 226 221 216 217
168 148 183 208 248 293 92 239 173 234 244 281 267 190 193 168 170 138 5 67 109 108 94 102 98 110 113 105 99 95 114 158 191 207 209 209 213 211 207 215 223 225 222
179 178 171 192 198 240 256 294 35 275 258 261 275 251 216 206 191 177 196 184 86 82 92 96 102 101 109 115 111 96 96 99 98 98 69 342 263 224 220 224 226 232 228
197 191 164 174 176 203 210 204 256 255 270 293 313 311 286 220 188 197 202 198 180 163 122 133 132 127 124 116 110 104 101 100 97 88 78 65 52 48 25 236 227 233 236
172 186 155 162 176 201 188 188 203 257 259 276 275 292 307 286 239 180 182 194 181 179 152 139 134 138 138 121 115 115 103 100 95 89 86 82 70 65 58 58 56 260 269
118 139 122 122 132 181 164 150 229 245 270 291 298 312 297 307 301 267 203 178 183 188 180 166 110 104 114 111 119 122 107 103 97 92 90 85 76 73 67 68 59 51 34
108 98 111 119 125 130 76 101 38 341 31 3 336 318 316 311 299 270 224 183 182 192 176 150 120 124 117 112 130 123 115 107 104 95 89 83 78 76 74 70 66 58 52
58 89 116 108 100 86 81 83 61 56 52 25 350 350 336 324 327 314 291 215 198 179 154 132 123 110 102 117 119 118 119 115 107 106 99 91 83 77 72 68 62 57 53
88 120 103 94 86 70 86 104 86 77 74 343 316 335 340 334 330 328 319 252 206 138 143 135 122 115 107 113 121 123 127 122 112 114 112 105 96 88 82 76 70 63 58
165 128 104 85 82 81 81 77 355 42 44 329 333 355 351 340 341 330 328 328 11 140 145 145 140 134 121 124 126 128 128 131 127 124 123 117 108 101 95 88 78 69 62
115 103 100 96 61 61 77 78 33 22 13 27 29 15 357 360 2 357 356 2 0 288 137 144 147 127 118 131 125 123 116 119 134 135 131 127 123 117 110 101 90 79 69
104 94 78 62 57 52 34 29 45 51 45 43 50 49 30 24 14 7 9 9 6 1 81 127 131 129 122 133 134 141 120 124 127 138 134 137 140 137 129 120 109 96 86
107 82 64 49 43 54 20 26 47 89 73 61 57 63 65 66 56 47 40 29 22 24 31 81 107 112 120 142 169 176 131 155 143 145 151 153 151 152 152 145 134 128 119
92 82 77 62 50 36 40 43 55 31 66 71 57 59 94 84 82 77 67 57 52 50 32 44 63 104 116 137 166 177 151 178 203 161 150 170 157 161 161 160 163 162 159
105 92 80 69 62 46 36 42 44 24 50 52 47 38 33 46 66 78 86 74 62 60 61 54 55 41 94 119 175 197 183 220 223 174 151 213 148 147 165 164 171 176 176
107 99 88 77 73 56 41 41 43 56 54 47 39 41 49 39 28 42 69 75 68 54 58 78 74 47 47 28 215 195 184 154 95 50 94 203 218 201 162 163 179 183 187
113 105 92 79 75 56 39 40 52 100 85 69 54 42 46 50 45 52 65 65 60 56 62 80 88 91 81 53 28 46 51 94 45 58 29 303 232 227 187 176 185 194 196
117 115 100 86 85 70 44 39 22 95 88 73 77 69 54 55 59 55 63 67 52 29 41 65 75 71 91 88 89 94 49 15 0 52 22 349 308 318 254 180 180 187 197